BERGEN/FLESLAND_AFB current weather conditions

sailwx.info

Wind from 080 at 9 knots

Air temperature 7.0° C
Visibility: greater than 5.4 NM
Dewpoint -8.0° C

Last reported at 2017-Apr-28 08:50 UTC.
Time now 2017-Apr-28 10:18 UTC

Location: N 60°18' E 005°13'.
View on Google Maps.

See reports from other nearby stations

  
Tides and Currents Weather Stations Pressure Air Temp Water Temp Dewpoint Dewpoint Depression Visibility Wind Speed Wind Dir Waves Ship Positions
date/time (UTC)wind fromknots sea level pressurealtimeterstation pressurevisibilityair tempwater tempwave heightnotes
2017-Apr-28 08:50 080 9 5.4 7.0
2017-Apr-28 08:20 070 9 5.4 7.0
2017-Apr-28 07:50 070 11 5.4 6.0
2017-Apr-28 07:20 070 11 5.4 6.0
2017-Apr-28 06:50 060 9 5.4 6.0
2017-Apr-28 06:20 070 8 5.4 6.0
2017-Apr-28 05:50 060 8 5.4 5.0
2017-Apr-28 05:20 060 6 5.4 5.0
2017-Apr-28 04:50 060 6 5.4 5.0
2017-Apr-28 04:20 060 5 5.4 4.0
2017-Apr-28 03:50 060 6 5.4 4.0
2017-Apr-28 02:50 070 6 5.4 4.0
2017-Apr-28 01:50 070 6 5.4 5.0
2017-Apr-28 00:50 070 6 5.4 5.0
2017-Apr-27 23:50 060 4 5.4 3.0
2017-Apr-27 22:50 360 4 5.4 3.0
2017-Apr-27 21:50 360 4 5.4 4.0
2017-Apr-27 21:20 360 4 5.4 4.0
2017-Apr-27 20:50 350 2 5.4 5.0
2017-Apr-27 20:20 350 6 5.4 5.0
2017-Apr-27 19:50 330 6 5.4 6.0
2017-Apr-27 19:20 330 8 5.4 7.0
2017-Apr-27 18:50 350 7 5.4 8.0 Showers in the vicinity.
2017-Apr-27 18:20 350 9 5.4 8.0 Showers in the vicinity.
2017-Apr-27 17:50 010 9 5.4 9.0
2017-Apr-27 17:20 350 9 5.4 9.0
2017-Apr-27 16:50 340 8 5.4 9.0
2017-Apr-27 16:20 340 6 5.4 9.0 Showers in the vicinity.
2017-Apr-27 15:50 360 6 5.4 9.0 Showers in the vicinity.
2017-Apr-27 15:20 020 5 5.4 9.0
2017-Apr-27 14:50 350 5 5.4 9.0
2017-Apr-27 14:20 350 5 5.4 8.0
2017-Apr-27 13:50 330 7 5.4 8.0
2017-Apr-27 13:20 330 7 5.4 7.0
2017-Apr-27 12:50 310 7 5.4 7.0
2017-Apr-27 12:20 330 7 5.4 6.0 Light rain showers.
2017-Apr-27 11:50 320 6 5.4 7.0
2017-Apr-27 11:20 300 4 5.4 6.0
2017-Apr-27 10:50 330 6 5.4 6.0
2017-Apr-27 10:20 090 2 5.4 5.0
2017-Apr-27 09:50 030 4 5.4 4.0
2017-Apr-27 09:20 040 5 5.4 5.0
2017-Apr-27 08:50 060 4 5.4 4.0 Light drizzle.
2017-Apr-27 08:20 090 4 5.4 4.0 Light rain drizzle.
2017-Apr-27 07:50 100 2 5.4 3.0
2017-Apr-27 07:20 120 5 5.4 3.0
2017-Apr-27 06:50 120 6 5.4 2.0
2017-Apr-27 06:20 120 6 5.4 2.0 Light drizzle.
2017-Apr-27 05:50 130 6 5.4 2.0 Light drizzle.
2017-Apr-27 05:20 130 9 5.4 2.0 Light rain.
2017-Apr-27 04:50 130 11 5.4 1.0 Light rain.
2017-Apr-27 04:20 130 12 5.4 1.0 Light rain.
2017-Apr-27 03:50 140 12 5.4 1.0 Light drizzle snow.
2017-Apr-27 02:50 140 9 2.7 1.0 Light snow.
2017-Apr-27 01:50 140 9 1.1-0.0 Snow.
2017-Apr-27 00:50 150 11 2.7 1.0 Light drizzle snow.
2017-Apr-26 23:50 160 11 4.3 2.0 Light drizzle snow.
2017-Apr-26 22:50 170 8 4.3 2.0 Light drizzle snow.
2017-Apr-26 21:50 190 6 5.4 2.0 Light drizzle snow.
2017-Apr-26 21:20 200 6 5.4 3.0 Light drizzle snow.
2017-Apr-26 20:50 5.4 4.0 Showers in the vicinity.
2017-Apr-26 20:20 290 2 5.4 4.0 Showers in the vicinity.
2017-Apr-26 19:50 300 4 5.4 4.0
2017-Apr-26 19:20 310 6 5.4 4.0
2017-Apr-26 18:50 310 8 5.4 4.0
2017-Apr-26 18:20 330 9 5.4 5.0
2017-Apr-26 17:50 340 11 5.4 5.0
2017-Apr-26 17:20 330 13 5.4 5.0
2017-Apr-26 16:50 330 14 5.4 5.0
2017-Apr-26 16:20 330 13 5.4 6.0
2017-Apr-26 15:50 320 13 5.4 6.0
2017-Apr-26 15:20 330 13 gusting 24 5.4 7.0
2017-Apr-26 14:50 320 14 5.4 6.0
2017-Apr-26 14:20 310 18 5.4 6.0
2017-Apr-26 13:50 310 15 5.4 6.0
2017-Apr-26 13:20 310 17 5.4 6.0
2017-Apr-26 12:50 320 14 gusting 25 5.4 6.0
2017-Apr-26 12:20 330 14 5.4 5.0
2017-Apr-26 11:50 310 17 5.4 6.0
2017-Apr-26 11:20 330 13 5.4 5.0
2017-Apr-26 10:50 330 13 5.4 6.0
2017-Apr-26 10:20 310 19 5.4 5.0